Content
SEND FEEDBACK

Daily
Averages
Monthly
Summary
United States of America

WEST MANCHESTER, OHIO


Home > North America > United States > Ohio
Elevation: 332 meters     Latitude: 39 52N     Longitude: 084 38W

WEATHER
 
SELECT A DAY
Number of Records: 186,204;   Date Range: 10/15/97 - 9/29/14
 
SHARE

PRINT THIS DATA

[ ← Previous Day ]
WEATHER ALMANAC - 31 JANUARY, 2013
[ Next Day → ]
[ °F ]   °C
Weather ElementAverageHighLow
Temperature-4.7 °C-1 °C (1:07 am)-9.4 °C (11:53 pm)
Dewpoint-8.9 °C-5.6 °C (1:53 am)-13.3 °C (11:53 pm)
Humidity73.3 %93 % (8:38 pm)51 % (2:53 pm)
Barometer1010.8 hPa1017.3 hPa (11:53 pm)1001.4 hPa (1:07 am)
Wind Speed24.9 km/h37 km/h (1:07 am)
Wind Gust61.2 km/h (4:53 am)
Weather ElementAverage
Visibility8.4 km
Wind DirectionW (274.4 °)

Weather ElementTotal
Precipitation1.02 mm
Heating Degree Days23.6 (Base 18.3)
Averaged from 54 records on 31 January, 2013
WEATHER CONDITIONS BREAKOUT
WIND DIRECTION BREAKOUT
WEATHER BY HOUR - 31 JANUARY, 2013
[ °F ]   °C
Local TimeTemperatureDewpointHumidityBarometerVisibilityWind DirectionWind SpeedGust SpeedPrecipitationEventsConditions
1:07 AM-1 °C-6 °C69 %1001.4 hPa16.1 kmWest (280°)37 km/h55.5 km/hOvercast
1:14 AM-1 °C-6 °C69 %1001.7 hPa16.1 kmWest (270°)25.9 km/h53.8 km/hOvercast
1:53 AM-1.7 °C-5.6 °C75 %1003 hPa14.5 kmWest (260°)35.2 km/h55.5 km/h0 mmSnowLight Snow
2:53 AM-2.8 °C-6.7 °C75 %1004.7 hPa16.1 kmWSW (250°)37 km/h55.5 km/h0 mmSnowLight Snow
3:53 AM-3.3 °C-7.8 °C71 %1005.8 hPa12.9 kmWest (260°)27.8 km/h57.5 km/h0 mmSnowLight Snow
4:53 AM-3.9 °C-10 °C63 %1006.8 hPa14.5 kmWest (270°)25.9 km/h61.2 km/h0 mmSnowLight Snow
5:11 AM-4 °C-9 °C69 %1006.1 hPa6.4 kmWest (260°)22.2 km/h35.2 km/h0 mmSnowLight Snow
5:48 AM-4 °C-10 °C64 %1006.4 hPa16.1 kmWest (270°)33.3 km/h59.2 km/h0 mmSnowLight Snow
5:53 AM-3.9 °C-10 °C63 %1007.1 hPa14.5 kmWest (260°)24.1 km/h48.1 km/h0 mmSnowLight Snow
6:53 AM-4.4 °C-10 °C65 %1008.1 hPa16.1 kmWest (260°)25.9 km/h40.7 km/h0 mmOvercast
7:13 AM-4 °C-9 °C69 %1007.8 hPa6.4 kmWest (260°)24.1 km/h38.9 km/h0 mmSnowLight Snow
7:23 AM-4 °C-8 °C74 %1007.8 hPa3.2 kmWSW (250°)24.1 km/h38.9 km/h0 mmSnowLight Snow
7:36 AM-4 °C-8 °C74 %1008.1 hPa8 kmWSW (250°)16.7 km/h35.2 km/h0 mmSnowLight Snow
7:43 AM-4 °C-8 °C74 %1008.5 hPa4 kmWest (270°)35.2 km/h51.8 km/h0 mmSnowLight Snow
7:47 AM-5 °C-7 °C86 %1008.5 hPa1.3 kmWest (270°)18.5 km/h51.8 km/h0 mmSnowLight Snow
7:53 AM-5 °C-7.2 °C85 %1009.5 hPa1.3 kmWest (270°)25.9 km/h33.3 km/h0 mmSnowLight Snow
7:56 AM-5 °C-8 °C80 %1008.5 hPa1.9 kmWest (270°)24.1 km/h38.9 km/h0 mmSnowLight Snow
8:00 AM-5 °C-8 °C80 %1008.8 hPa4.8 kmWest (270°)22.2 km/h38.9 km/h0 mmSnowLight Snow
8:53 AM-5.6 °C-11.1 °C66 %1010.8 hPa12.9 kmWest (260°)31.5 km/h50.1 km/h0 mmOvercast
9:53 AM-5.6 °C-11.7 °C63 %1012.2 hPa16.1 kmWest (270°)24.1 km/h40.7 km/h0 mmOvercast
10:53 AM-4.4 °C-10 °C65 %1012.9 hPa8 kmWSW (240°)24.1 km/h42.6 km/h0 mmSnowLight Snow
11:53 AM-3.9 °C-10 °C63 %1012.9 hPa14.5 kmWSW (240°)29.6 km/h44.4 km/h0 mmOvercast
12:53 PM-2.8 °C-10.6 °C56 %1012.2 hPa16.1 kmWSW (240°)37 km/h48.1 km/hOvercast
1:53 PM-2.2 °C-9.4 °C58 %1012.2 hPa16.1 kmWSW (240°)35.2 km/h48.1 km/hOvercast
2:53 PM-1.7 °C-10.6 °C51 %1011.9 hPa16.1 kmWSW (240°)35.2 km/h51.8 km/hOvercast
3:53 PM-1.7 °C-9.4 °C56 %1012.2 hPa16.1 kmWSW (240°)31.5 km/h51.8 km/hOvercast
4:53 PM-1.7 °C-9.4 °C56 %1012.2 hPa16.1 kmWest (260°)14.8 km/h37 km/hOvercast
5:15 PM-3 °C-8 °C69 %1011.2 hPa4 kmWSW (240°)22.2 km/h51.8 km/h0 mmSnowLight Snow
5:23 PM-3 °C-8 °C69 %1011.2 hPa14.5 kmWest (260°)14.8 km/h31.5 km/h0 mmOvercast
5:53 PM-2.2 °C-8.3 °C63 %1012.2 hPa16.1 kmWest (260°)16.7 km/h27.8 km/h0 mmOvercast
6:53 PM-2.2 °C-8.9 °C61 %1012.9 hPa16.1 kmWSW (250°)13 km/hOvercast
7:38 PM-3 °C-7 °C74 %1012.2 hPa2.4 kmWest (280°)25.9 km/h40.7 km/h0 mmSnowLight Snow
7:47 PM-4 °C-6 °C86 %1012.5 hPa1.3 kmWest (280°)20.4 km/h35.2 km/h0 mmSnowLight Snow
7:48 PM-4 °C-6 °C86 %1012.5 hPa1.3 kmWest (270°)18.5 km/h33.3 km/h0 mmSnowLight Snow
7:53 PM-3.9 °C-5.6 °C88 %1013.9 hPa0.8 kmWest (280°)22.2 km/h31.5 km/h0 mmFog-SnowSnow
8:22 PM-4 °C-6 °C86 %1012.5 hPa1.6 kmWest (270°)14.8 km/h0.25 mmSnowLight Snow
8:31 PM-4 °C-6 °C86 %1012.5 hPa1.3 kmWest (280°)16.7 km/h0.25 mmSnowLight Snow
8:38 PM-5 °C-6 °C93 %1012.5 hPa1.3 kmWest (280°)18.5 km/h0.25 mmSnowLight Snow
8:53 PM-5 °C-6.7 °C88 %1013.9 hPa1.6 kmWNW (300°)24.1 km/h33.3 km/h0.25 mmSnowLight Snow
8:59 PM-5 °C-7 °C86 %1012.5 hPa1.9 kmNW (310°)18.5 km/h33.3 km/h0 mmSnowLight Snow
9:09 PM-6 °C-7 °C93 %1012.5 hPa4.8 kmWNW (300°)18.5 km/h29.6 km/h0 mmSnowLight Snow
9:31 PM-6 °C-8 °C86 %1012.9 hPa2.9 kmWNW (300°)22.2 km/h38.9 km/h0 mmSnowLight Snow
9:38 PM-6 °C-9 °C80 %1013.2 hPa3.2 kmWNW (300°)27.8 km/h38.9 km/h0 mmSnowLight Snow
9:53 PM-6.1 °C-10 °C74 %1014.6 hPa4 kmWNW (300°)20.4 km/h40.7 km/h0 mmSnowLight Snow
10:13 PM-7 °C-10 °C80 %1013.5 hPa4.8 kmNNW (330°)25.9 km/h42.6 km/h0 mmSnowLight Snow
10:31 PM-8 °C-12 °C73 %1013.9 hPa4 kmNW (310°)27.8 km/h46.3 km/h0 mmSnowLight Snow
10:40 PM-8 °C-12 °C73 %1014.2 hPa8 kmNW (320°)20.4 km/h35.2 km/h0 mmSnowLight Snow
10:53 PM-8.3 °C-12.2 °C74 %1015.6 hPa6.4 kmNW (310°)31.5 km/h40.7 km/h0 mmSnowLight Snow
11:11 PM-9 °C-13 °C73 %1014.6 hPa4 kmNW (310°)24.1 km/h40.7 km/h0 mmSnowLight Snow
11:19 PM-9 °C-13 °C73 %1014.9 hPa8 kmNW (310°)24.1 km/h38.9 km/h0 mmSnowLight Snow
11:28 PM-9 °C-12 °C79 %1014.9 hPa6.4 kmWNW (300°)31.5 km/h42.6 km/h0 mmSnowLight Snow
11:33 PM-9 °C-12 °C79 %1015.2 hPa2.9 kmWNW (300°)29.6 km/h44.4 km/h0 mmSnowLight Snow
11:46 PM-9 °C-13 °C73 %1015.6 hPa4.8 kmWNW (300°)24.1 km/h38.9 km/h0 mmSnowLight Snow
11:53 PM-9.4 °C-13.3 °C74 %1017.3 hPa12.9 kmWNW (290°)20.4 km/h37 km/h0 mmOvercast
Hourly data recorded from KMGY, located 0 kilometers away from West Manchester, Ohio







STORIES FROM OUR PARTNERS